Tracking 18942 objects as of 18-Jan-2018
HD Live streaming from Space Station
objects crossing your sky now

AMAZONAS 2

Track AMAZONAS 2 now!
AMAZONAS 2 is classified as:


NORAD ID: 35942
Int'l Code: 2009-054A
Perigee: 35,788.5 km
Apogee: 35,798.4 km
Inclination: 0.0 °
Period: 1,436.1 minutes
Semi major axis: 42164 km
RCS: 8.2771 m2 (large)
Launch date: September 30, 2009
Source: Spain (SPN)
Launch site: FRENCH GUIANA (FRGUI)

Amazonas 2 was built by Astrium based on its Eurostar E3000 satellite bus, for on-orbit delivery in 2009. Amazonas 2 will be operated from at 61° West, providing relay services with 54 Ku band and 10 C band transponders.
aabbcc
Your satellite tracking list
Your tracking list is empty




NASA's NSSDC Master Catalog

Two Line Element Set (TLE):
1 35942U 09054A   18017.41148472 -.00000280 +00000-0 +00000-0 0  9990
2 35942 000.0306 137.6501 0001167 095.0631 331.1868 01.00272793030369
Source of the keplerian elements: AFSPC